Showing default

RAWHIDE-2, 68632

Orbit data source: Space-Track

RAWHIDE-2, 68632 is a payload satellite owned by SMDC (US) in LEO that was launched on Tue, 07 Apr 2026 UTC via an MINOTAUR IV launch vehicle from the Air Force Western Test Range (AFWTR). Payload-class satellites include a variety of spacecraft equipped with specific instruments for various scientific and technological missions. These include communications satellites like Starlink; space stations such as the ISS; scientific satellites like the Hubble; Earth observation satellites from companies like Planet Labs, Umbra, and HawkEye 360; GPS; miniature CubeSats for education and research; and military/defense satellites.

Loading next visibility...
Identifier
68632, 2026-074F
Orbit
LEO
Country
Flag of USUS
Related business
Manufacturer
SMDC?
Mission
Operational spacecraft
Bus & Motor
CUBESAT 6U?, Unknown motor
Mass
10 kg wet, 10 kg dry
Launch date (UTC)
2026-04-07 (1 month ago)
Launch vehicle
MINOTAUR IV
Launch site
Air Force Western Test Range (AFWTR)
Object type
Payload
Rocket body
Debris
Shape & HBR
Unknown shape, 14.5 m
Radar Cross Section
RCS unknown

Expand to show TLE details & history
Last TLE update: 13 hours ago

TLE from 13 hours ago
0 RAWHIDE-2
1 68632U 26074F   26140.40623198  .00006347  00000-0  26046-3 0  9991
2 68632  60.0316 284.6352 0023620   7.6064 352.5371 15.25156499  6547
Epoch: 2026-05-20T09:44Z
TLE epoch observation values (Epoch: 2026-05-20T09:44:58.443Z)
Latitude
0.00005°
Longitude
-99.67453°
Altitude
475.832 km
Speed
7.638 km/s
True Right ascension
18h 58m 32s
True Declination
0° 00' 00"
Sunlit
Object was in full shadow at epoch
Visualization orbit readout
Latitude
Unknown
Longitude
Unknown
Altitude
Unknown
Speed
Unknown
Apparent Right ascension
Unknown
Apparent Declination
Unknown
Sunlit
N/A
Visualization observer readout
Local Sidereal Time
07:15:09
Azimuth
Unknown
Elevation
Unknown
Doppler factor
Unknown
Orbital elements
Apogee altitude
505.735 km
Perigee altitude
473.292 km
Semi-major axis
6,867.651 km
Eccentricity
0.00236
Inclination
60.0316°
RAAN
284.6352°
Arg. of periapsis
7.6064°
True anomaly
352.50184°
Mean anomaly
352.5371°
Eccentric anomaly
352.51948°
Mean motion
3.81356 °/min
Orbital period
94.4 mins
BSTAR
0.00026046
Loading maneuver chart data...
Computing Atmospheric mass density...
Loading historical data...
Loading historical data...
Loading historical data...
Loading historical data...
Loading historical data...
Loading historical data...
Loading historical data...

Documentation

Showing up to 5 results
|